TKJ32 EHAM-EDDF

Flight info

Callsign TKJ32
Flight time 0h 41m
Altitude 35000
Route IVLUT4W EDUPO Z739 MISGO DCT DIXAT DIXAT1A
Aircraft B738/M-SDE2E3FGHIRWXY/LB1

Departure

Time 2026-05-05 19:26
Airport Amsterdam Airport Schiphol (EHAM)

Arrival

Time 2026-05-05 20:07
Airport Frankfurt Main Airport (EDDF)
Time Latitude Longitude Altitude Speed Heading
2026-05-05 19:07 52.29923 4.75333 -2 ft 0 kts 239°
2026-05-05 19:16 52.29928 4.75346 -2 ft 2 kts 224°
2026-05-05 19:17 52.29941 4.75363 -2 ft 2 kts 203°
2026-05-05 19:17 52.29957 4.75368 -3 ft 2 kts 172°
2026-05-05 19:17 52.29973 4.75360 -3 ft 2 kts 153°
2026-05-05 19:17 52.29983 4.75351 -3 ft 1 kts 146°
2026-05-05 19:18 52.29985 4.75349 -3 ft 0 kts 146°
2026-05-05 19:19 52.29976 4.75359 -3 ft 0 kts 146°
2026-05-05 19:19 52.29959 4.75378 -3 ft 7 kts 147°
2026-05-05 19:20 52.29894 4.75422 -2 ft 13 kts 191°
2026-05-05 19:20 52.29814 4.75325 0 ft 13 kts 214°
2026-05-05 19:20 52.29762 4.75265 1 ft 1 kts 220°
2026-05-05 19:20 52.29766 4.75255 0 ft 1 kts 313°
2026-05-05 19:21 52.29781 4.75257 1 ft 4 kts
2026-05-05 19:21 52.29824 4.75226 0 ft 10 kts 319°
2026-05-05 19:21 52.29892 4.75102 -4 ft 20 kts 311°
2026-05-05 19:21 52.29994 4.74913 1 ft 24 kts 311°
2026-05-05 19:22 52.30108 4.74702 6 ft 17 kts 311°
2026-05-05 19:22 52.30178 4.74571 8 ft 18 kts 310°
2026-05-05 19:22 52.30238 4.74460 4 ft 15 kts 312°
2026-05-05 19:22 52.30295 4.74354 4 ft 13 kts 310°
2026-05-05 19:23 52.30329 4.74286 2 ft 6 kts 311°
2026-05-05 19:23 52.30349 4.74253 1 ft 0 kts 314°
2026-05-05 19:23 52.30348 4.74227 1 ft 6 kts 262°
2026-05-05 19:24 52.30339 4.74127 -1 ft 1 kts 257°
2026-05-05 19:24 52.30323 4.74064 -1 ft 11 kts 238°
2026-05-05 19:24 52.30295 4.74012 -2 ft 0 kts 220°
2026-05-05 19:25 52.30288 4.74002 -2 ft 5 kts 220°
2026-05-05 19:25 52.30222 4.73915 -5 ft 21 kts 221°
2026-05-05 19:25 52.30257 4.73746 -5 ft 23 kts 357°
2026-05-05 19:25 52.30697 4.73781 -4 ft 110 kts
2026-05-05 19:26 52.31733 4.73879 62 ft 182 kts
2026-05-05 19:26 52.33070 4.74052 924 ft 192 kts
2026-05-05 19:26 52.34349 4.74144 2368 ft 179 kts 20°
2026-05-05 19:26 52.35493 4.75053 3202 ft 191 kts 27°
2026-05-05 19:27 52.36788 4.76061 3491 ft 219 kts 26°
2026-05-05 19:27 52.38095 4.77341 4154 ft 226 kts 42°
2026-05-05 19:27 52.39196 4.79204 4993 ft 228 kts 45°
2026-05-05 19:27 52.40322 4.81117 5652 ft 236 kts 44°
2026-05-05 19:28 52.41469 4.83067 5861 ft 237 kts 47°
2026-05-05 19:28 52.42235 4.85407 5906 ft 237 kts 72°
2026-05-05 19:28 52.42449 4.88182 6239 ft 257 kts 86°
2026-05-05 19:28 52.42454 4.91220 6826 ft 273 kts 89°
2026-05-05 19:29 52.42440 4.94367 7703 ft 278 kts 89°
2026-05-05 19:29 52.42221 4.97532 8584 ft 285 kts 109°
2026-05-05 19:29 52.41172 5.00290 9530 ft 289 kts 135°
2026-05-05 19:29 52.39579 5.02326 10364 ft 295 kts 145°
2026-05-05 19:30 52.37814 5.04302 10670 ft 321 kts 146°
2026-05-05 19:30 52.35895 5.06459 10859 ft 348 kts 145°
2026-05-05 19:30 52.33838 5.08812 11078 ft 371 kts 143°
2026-05-05 19:30 52.31902 5.11733 11571 ft 383 kts 131°
2026-05-05 19:31 52.30194 5.15000 12400 ft 384 kts 130°
2026-05-05 19:31 52.28438 5.18339 13176 ft 389 kts 131°
2026-05-05 19:31 52.26636 5.21669 13893 ft 394 kts 131°
2026-05-05 19:31 52.24796 5.25015 14617 ft 396 kts 131°
2026-05-05 19:32 52.23040 5.28491 15337 ft 399 kts 127°
2026-05-05 19:32 52.21418 5.32177 16044 ft 401 kts 124°
2026-05-05 19:32 52.19835 5.35948 16737 ft 404 kts 124°
2026-05-05 19:32 52.18259 5.39709 17414 ft 407 kts 124°
2026-05-05 19:33 52.16639 5.43524 18083 ft 411 kts 125°
2026-05-05 19:33 52.14995 5.47343 18680 ft 413 kts 125°
2026-05-05 19:33 52.13326 5.51182 19253 ft 416 kts 126°
2026-05-05 19:33 52.11643 5.55031 19804 ft 420 kts 126°
2026-05-05 19:34 52.09940 5.58920 20361 ft 423 kts 127°
2026-05-05 19:34 52.08226 5.62826 20882 ft 426 kts 127°
2026-05-05 19:34 52.06497 5.66760 21397 ft 429 kts 127°
2026-05-05 19:35 52.02675 5.74288 22403 ft 434 kts 133°
2026-05-05 19:35 52.00650 5.77947 22907 ft 437 kts 133°
2026-05-05 19:35 51.98632 5.81654 23403 ft 439 kts 133°
2026-05-05 19:35 51.96616 5.85412 23820 ft 442 kts 133°
2026-05-05 19:36 51.94598 5.89181 24233 ft 443 kts 133°
2026-05-05 19:36 51.92570 5.92959 24646 ft 445 kts 133°
2026-05-05 19:36 51.90535 5.96746 25061 ft 447 kts 133°
2026-05-05 19:36 51.88483 6.00556 25442 ft 449 kts 133°
2026-05-05 19:37 51.86445 6.04332 25799 ft 451 kts 133°
2026-05-05 19:37 51.84368 6.08166 26149 ft 453 kts 133°
2026-05-05 19:37 51.82277 6.11996 26503 ft 454 kts 133°
2026-05-05 19:37 51.80179 6.15829 26848 ft 456 kts 133°
2026-05-05 19:38 51.78099 6.19626 27186 ft 458 kts 133°
2026-05-05 19:38 51.75985 6.23482 27528 ft 459 kts 133°
2026-05-05 19:38 51.73874 6.27337 27974 ft 457 kts 133°
2026-05-05 19:38 51.71775 6.31168 28544 ft 454 kts 133°
2026-05-05 19:39 51.69691 6.34969 29113 ft 451 kts 133°
2026-05-05 19:39 51.67620 6.38742 29649 ft 448 kts 133°
2026-05-05 19:39 51.65552 6.42502 30102 ft 447 kts 133°
2026-05-05 19:39 51.63492 6.46237 30539 ft 444 kts 133°
2026-05-05 19:40 51.61445 6.49944 31004 ft 441 kts 134°
2026-05-05 19:40 51.59409 6.53627 31450 ft 439 kts 134°
2026-05-05 19:40 51.57381 6.57289 31876 ft 437 kts 134°
2026-05-05 19:40 51.55355 6.60945 32275 ft 435 kts 134°
2026-05-05 19:41 51.53350 6.64557 32663 ft 434 kts 134°
2026-05-05 19:41 51.51368 6.68125 33070 ft 431 kts 134°
2026-05-05 19:41 51.49374 6.71707 33496 ft 429 kts 134°
2026-05-05 19:41 51.47386 6.75276 33854 ft 428 kts 134°
2026-05-05 19:42 51.45391 6.78852 33775 ft 433 kts 134°
2026-05-05 19:42 51.43377 6.82457 33495 ft 429 kts 134°
2026-05-05 19:42 51.41412 6.85972 33524 ft 421 kts 134°
2026-05-05 19:43 51.37622 6.93200 33234 ft 429 kts 131°
2026-05-05 19:43 51.35766 6.96986 32647 ft 434 kts 130°
2026-05-05 19:43 51.33894 7.00812 31979 ft 437 kts 130°
2026-05-05 19:43 51.32011 7.04619 31125 ft 438 kts 130°
2026-05-05 19:44 51.30126 7.08392 30311 ft 429 kts 130°
2026-05-05 19:44 51.28205 7.12003 29207 ft 425 kts 136°
2026-05-05 19:44 51.26004 7.15111 28108 ft 419 kts 143°
2026-05-05 19:44 51.23598 7.17690 27038 ft 414 kts 152°
2026-05-05 19:45 51.21035 7.19726 26035 ft 410 kts 154°
2026-05-05 19:45 51.18478 7.21686 25272 ft 404 kts 154°
2026-05-05 19:45 51.15913 7.23678 25131 ft 416 kts 154°
2026-05-05 19:45 51.13280 7.25750 25019 ft 429 kts 154°
2026-05-05 19:46 51.10565 7.27916 24904 ft 441 kts 153°
2026-05-05 19:46 51.07850 7.30154 24851 ft 449 kts 152°
2026-05-05 19:46 51.05059 7.32472 24834 ft 455 kts 152°
2026-05-05 19:46 51.02248 7.34802 24822 ft 455 kts 152°
2026-05-05 19:47 50.99446 7.37113 24812 ft 452 kts 153°
2026-05-05 19:47 50.96658 7.39404 24814 ft 452 kts 153°
2026-05-05 19:47 50.93867 7.41695 24830 ft 453 kts 153°
2026-05-05 19:47 50.91081 7.43980 24812 ft 443 kts 153°
2026-05-05 19:48 50.88415 7.46164 24742 ft 422 kts 153°
2026-05-05 19:48 50.85849 7.48262 24296 ft 406 kts 153°
2026-05-05 19:48 50.83375 7.50283 23472 ft 398 kts 153°
2026-05-05 19:48 50.80902 7.52299 22116 ft 402 kts 153°
2026-05-05 19:49 50.78409 7.54331 20800 ft 404 kts 153°
2026-05-05 19:49 50.76756 7.55678 19963 ft 405 kts 153°
2026-05-05 19:49 50.73430 7.58384 18861 ft 395 kts 153°
2026-05-05 19:49 50.70956 7.60393 18174 ft 409 kts 153°
2026-05-05 19:50 50.68384 7.62478 17500 ft 417 kts 153°
2026-05-05 19:50 50.65806 7.64566 16962 ft 417 kts 153°
2026-05-05 19:50 50.63232 7.66650 16444 ft 415 kts 154°
2026-05-05 19:50 50.60674 7.68717 15921 ft 411 kts 154°
2026-05-05 19:51 50.58145 7.70757 15455 ft 407 kts 154°
2026-05-05 19:51 50.55631 7.72782 14998 ft 405 kts 154°
2026-05-05 19:51 50.53117 7.74804 14855 ft 407 kts 154°
2026-05-05 19:51 50.50642 7.76795 14805 ft 389 kts 154°
2026-05-05 19:52 50.48291 7.78685 14793 ft 372 kts 154°
2026-05-05 19:52 50.46032 7.80498 14784 ft 355 kts 155°
2026-05-05 19:52 50.43922 7.82228 14787 ft 340 kts 150°
2026-05-05 19:52 50.42186 7.84653 14806 ft 335 kts 129°
2026-05-05 19:53 50.41007 7.87920 14825 ft 359 kts 112°
2026-05-05 19:53 50.40194 7.91740 14581 ft 374 kts 108°
2026-05-05 19:53 50.39465 7.95613 14023 ft 366 kts 107°
2026-05-05 19:53 50.38778 7.99398 13469 ft 355 kts 107°
2026-05-05 19:54 50.38107 8.03077 12889 ft 347 kts 108°
2026-05-05 19:54 50.37441 8.06667 12320 ft 340 kts 108°
2026-05-05 19:54 50.36776 8.10195 11750 ft 333 kts 108°
2026-05-05 19:54 50.36342 8.12477 11384 ft 329 kts 108°
2026-05-05 19:55 50.35688 8.15890 10835 ft 324 kts 108°
2026-05-05 19:55 50.35044 8.19232 10304 ft 318 kts 109°
2026-05-05 19:55 50.34407 8.22523 9910 ft 311 kts 109°
2026-05-05 19:55 50.33606 8.26652 9578 ft 297 kts 109°
2026-05-05 19:56 50.33487 8.27267 9536 ft 297 kts 109°
2026-05-05 19:56 50.32884 8.30358 9275 ft 296 kts 109°
2026-05-05 19:56 50.32282 8.33438 9009 ft 296 kts 109°
2026-05-05 19:56 50.31680 8.36514 8704 ft 295 kts 109°
2026-05-05 19:57 50.31078 8.39589 8167 ft 296 kts 109°
2026-05-05 19:57 50.30487 8.42601 7865 ft 289 kts 109°
2026-05-05 19:57 50.29889 8.45645 7843 ft 294 kts 109°
2026-05-05 19:57 50.29290 8.48688 7818 ft 292 kts 109°
2026-05-05 19:58 50.28694 8.51713 7810 ft 289 kts 109°
2026-05-05 19:58 50.28099 8.54729 7819 ft 291 kts 109°
2026-05-05 19:58 50.27501 8.57755 7818 ft 291 kts 109°
2026-05-05 19:58 50.26901 8.60785 7819 ft 291 kts 109°
2026-05-05 19:59 50.26300 8.63812 7820 ft 292 kts 109°
2026-05-05 19:59 50.25697 8.66847 7593 ft 293 kts 109°
2026-05-05 19:59 50.25100 8.69847 7341 ft 290 kts 109°
2026-05-05 19:59 50.24504 8.72846 7090 ft 287 kts 109°
2026-05-05 20:00 50.23914 8.75808 6841 ft 285 kts 109°
2026-05-05 20:00 50.23324 8.78763 6603 ft 284 kts 109°
2026-05-05 20:00 50.22735 8.81707 6360 ft 283 kts 109°
2026-05-05 20:00 50.22126 8.84626 6101 ft 281 kts 115°
2026-05-05 20:01 50.21018 8.87075 5826 ft 274 kts 139°
2026-05-05 20:01 50.19608 8.88998 5582 ft 266 kts 143°
2026-05-05 20:01 50.18192 8.90801 5324 ft 260 kts 147°
2026-05-05 20:01 50.16561 8.91861 5048 ft 252 kts 175°
2026-05-05 20:02 50.14821 8.91970 4824 ft 249 kts 185°
2026-05-05 20:02 50.13208 8.91164 4524 ft 245 kts 220°
2026-05-05 20:02 50.12079 8.89231 4340 ft 238 kts 231°
2026-05-05 20:02 50.11041 8.87283 4111 ft 228 kts 231°
2026-05-05 20:03 50.10267 8.85275 4016 ft 212 kts 251°
2026-05-05 20:03 50.09808 8.83201 3986 ft 194 kts 250°
2026-05-05 20:03 50.09370 8.81315 3995 ft 175 kts 250°
2026-05-05 20:03 50.08960 8.79565 4020 ft 171 kts 249°
2026-05-05 20:04 50.08556 8.77848 4027 ft 169 kts 249°
2026-05-05 20:04 50.08145 8.76103 3895 ft 176 kts 249°
2026-05-05 20:04 50.07719 8.74294 3506 ft 178 kts 249°
2026-05-05 20:04 50.07282 8.72459 2829 ft 186 kts 249°
2026-05-05 20:05 50.06823 8.70586 2265 ft 183 kts 249°
2026-05-05 20:05 50.06367 8.68752 1901 ft 171 kts 248°
2026-05-05 20:05 50.05975 8.67186 1954 ft 156 kts 248°
2026-05-05 20:05 50.05554 8.65472 1525 ft 171 kts 250°
2026-05-05 20:06 50.05205 8.63823 1272 ft 152 kts 251°
2026-05-05 20:06 50.04870 8.62297 904 ft 146 kts 250°
2026-05-05 20:06 50.04537 8.60878 658 ft 137 kts 250°
2026-05-05 20:06 50.04205 8.59479 481 ft 138 kts 249°
2026-05-05 20:07 50.03874 8.58103 385 ft 136 kts 249°
2026-05-05 20:07 50.03554 8.56768 362 ft 124 kts 251°
2026-05-05 20:07 50.03434 8.56085 362 ft 21 kts 280°
2026-05-05 20:07 50.03448 8.55960 368 ft 0 kts 280°
2026-05-05 20:08 50.03449 8.55950 370 ft 5 kts 278°
2026-05-05 20:09 50.03453 8.55907 366 ft 4 kts 278°
2026-05-05 20:09 50.03458 8.55852 364 ft 5 kts 279°
2026-05-05 20:09 50.03466 8.55789 366 ft 4 kts 281°
2026-05-05 20:09 50.03469 8.55763 369 ft 5 kts 281°
2026-05-05 20:10 50.03482 8.55642 365 ft 18 kts 279°
2026-05-05 20:10 50.03563 8.55517 365 ft 13 kts
2026-05-05 20:10 50.03592 8.55522 365 ft 0 kts